This is the latest recevied weather packets stored in our database for station/object KM8V-8. If no packets are shown the sender has not sent any weather packets the latest 10 day(s).
| Time | Temp. | Humidity | Pressure | Rain* | Wind** | Luminosity | Snow |
|---|---|---|---|---|---|---|---|
| 1777379417 | 14.44° C | 86% | 1010.3 hPa | 0 mm | - | 187 W/m² | - |
| 1777379118 | 14.44° C | 87% | 1010.2 hPa | 0 mm | - | 140 W/m² | - |
| 1777378817 | 14.44° C | 87% | 1010.1 hPa | 0 mm | - | 116 W/m² | - |
| 1777378517 | 14.44° C | 88% | 1010 hPa | 0 mm | - | 109 W/m² | - |
| 1777378217 | 14.44° C | 89% | 1010 hPa | 0 mm | - | 111 W/m² | - |
| 1777377918 | 14.44° C | 89% | 1010 hPa | 0 mm | - | 109 W/m² | - |
| 1777377624 | 14.44° C | 89% | 1009.9 hPa | 0 mm | - | 102 W/m² | - |
| 1777377319 | 14.44° C | 89% | 1009.8 hPa | 0 mm | - | 95 W/m² | - |
| 1777377018 | 14.44° C | 90% | 1009.9 hPa | 0 mm | - | 86 W/m² | - |
| 1777376718 | 14.44° C | 90% | 1009.8 hPa | 0 mm | - | 81 W/m² | - |
| 1777376418 | 14.44° C | 90% | 1009.9 hPa | 0 mm | - | 68 W/m² | - |
| 1777376119 | 14.44° C | 90% | 1009.9 hPa | 0 mm | - | 53 W/m² | - |
| 1777375819 | 14.44° C | 90% | 1009.9 hPa | 0 mm | - | 46 W/m² | - |
| 1777375518 | 14.44° C | 90% | 1009.8 hPa | 0 mm | - | 38 W/m² | - |
| 1777375218 | 14.44° C | 90% | 1009.9 hPa | 0 mm | - | 28 W/m² | - |
| 1777374920 | 14.44° C | 90% | 1009.9 hPa | 0 mm | - | 20 W/m² | - |
| 1777374619 | 14.44° C | 90% | 1009.8 hPa | 0 mm | - | 14 W/m² | - |
| 1777374319 | 14.44° C | 90% | 1009.7 hPa | 0 mm | - | 10 W/m² | - |
| 1777374018 | 14.44° C | 90% | 1009.4 hPa | 0 mm | - | 11 W/m² | - |
| 1777373719 | 14.44° C | 90% | 1009.3 hPa | 0 mm | - | 11 W/m² | - |
| 1777373418 | 15° C | 90% | 1009.2 hPa | 0 mm | - | 8 W/m² | - |
| 1777373118 | 15° C | 90% | 1009 hPa | 0 mm | - | 8 W/m² | - |
| 1777372819 | 15° C | 90% | 1008.7 hPa | 0 mm | - | 5 W/m² | - |
| 1777372519 | 15° C | 90% | 1008.6 hPa | 0 mm | - | 1 W/m² | - |
| 1777372219 | 15° C | 90% | 1008.5 hPa | 0 mm | - | 1 W/m² | - |
* Rain latest hour (hover to see other rain measurements)
** Current wind speed in m/s (hover to see current wind gust speed)